This is the latest recevied weather packets stored in our database for station/object KJ5FA-10. If no packets are shown the sender has not sent any weather packets the latest 10 day(s).
| Time | Temp. | Humidity | Pressure | Rain* | Wind** | Luminosity | Snow |
|---|---|---|---|---|---|---|---|
| 1777730077 | 13.89° C | 76% | 1021.7 hPa | 0 mm | - | - | - |
| 1777728276 | 11.67° C | 87% | 1021.6 hPa | 0 mm | - | - | - |
| 1777727377 | 10.56° C | 97% | 1021.5 hPa | 0 mm | - | - | - |
| 1777726478 | 10° C | 97% | 1021.5 hPa | 0 mm | - | - | - |
| 1777725576 | 9.44° C | 96% | 1021.2 hPa | 0 mm | - | - | - |
| 1777724676 | 8.89° C | 96% | 1021 hPa | 0 mm | - | - | - |
| 1777723777 | 8.33° C | 96% | 1021 hPa | 0 mm | - | - | - |
| 1777722876 | 7.78° C | 96% | 1020.9 hPa | 0 mm | - | - | - |
| 1777721977 | 7.78° C | 96% | 1020.5 hPa | 0 mm | - | - | - |
| 1777721076 | 8.33° C | 96% | 1020.4 hPa | 0 mm | - | - | - |
| 1777720176 | 8.33° C | 96% | 1020.1 hPa | 0 mm | - | - | - |
| 1777719276 | 8.33° C | 96% | 1020.2 hPa | 0 mm | - | - | - |
| 1777718375 | 8.89° C | 96% | 1019.9 hPa | 0 mm | - | - | - |
| 1777717475 | 8.89° C | 95% | 1019.8 hPa | 0 mm | - | - | - |
| 1777716577 | 9.44° C | 95% | 1019.9 hPa | 0 mm | - | - | - |
| 1777715677 | 10° C | 95% | 1019.7 hPa | 0 mm | - | - | - |
| 1777714776 | 9.44° C | 94% | 1019.6 hPa | 0 mm | - | - | - |
| 1777713877 | 9.44° C | 94% | 1019.4 hPa | 0 mm | - | - | - |
| 1777712976 | 10° C | 94% | 1019.5 hPa | 0 mm | - | - | - |
| 1777712075 | 10° C | 93% | 1019.4 hPa | 0 mm | - | - | - |
| 1777711175 | 10° C | 91% | 1019.2 hPa | 0 mm | - | - | - |
| 1777710276 | 10.56° C | 91% | 1019.4 hPa | 0 mm | - | - | - |
| 1777709376 | 10.56° C | 90% | 1019.1 hPa | 0 mm | - | - | - |
| 1777708476 | 10.56° C | 88% | 1019.1 hPa | 0 mm | - | - | - |
| 1777707577 | 11.11° C | 87% | 1019.4 hPa | 0 mm | - | - | - |
* Rain latest hour (hover to see other rain measurements)
** Current wind speed in m/s (hover to see current wind gust speed)